Location: Jihlava
(49.4000°N, 15.5830°E)
Time: 08:23:12
(UTC+01:00)

ISS - Visible Passes

Search period start: 17 February 2020 00:00
Search period end: 27 February 2020 00:00
Orbit: 416 x 423 km, 51.6° (Epoch: 17 February)

Date Brightness Start Highest point End Pass type
(mag) Time Alt. Az. Time Alt. Az. Time Alt. Az.
21 Feb -0.7 05:56:55 10° SSE 05:58:39 13° SE 06:00:23 10° ESE visible
23 Feb -1.9 05:56:52 10° SSW 05:59:50 29° SE 06:02:49 10° E visible
24 Feb -1.4 05:09:49 10° S 05:12:21 20° SE 05:14:54 10° E visible
25 Feb -1.0 04:24:27 13° SE 04:24:55 13° SE 04:26:37 10° ESE visible
25 Feb -3.3 05:57:51 10° SW 06:01:10 60° SSE 06:04:30 10° ENE visible
26 Feb -2.8 05:11:56 23° SSW 05:13:34 42° SSE 05:16:48 10° ENE visible
